Weather History for Rockport, TX

Change the Weather History Date:

Friday, August 9, 2013

  Actual Average Record
Temperature  
Mean Temperature 86 °F -  
Max Temperature 93 °F 90 °F 93 °F (1973)
Min Temperature 78 °F 77 °F 70 °F (1980)
Cooling Degree Days 20    
Growing Degree Days 36 (Base 50)    
Moisture  
Dew Point 76 °F    
Average Humidity 74    
Maximum Humidity 90    
Minimum Humidity 56    
Precipitation  
Precipitation 0.00 in - - ()
Sea Level Pressure  
Sea Level Pressure 29.92 in    
Wind  
Wind Speed 7 mph (SE)    
Max Wind Speed 15 mph    
Max Gust Speed 20 mph    
Visibility 9 miles    
Events      
Averages and records for this station are not official NWS values.
T = Trace of Precipitation, MM = Missing Value Source: NWS Daily Summary

Daily Weather History Graph

Daily Weather History Graph

Search for Another Location

Airport:

Trip Planner

Search our weather history database for the weather conditions in past years. The results will help you decide how hot, cold, wet, or windy it might be!

Date:

Astronomy

Aug. 09, 2013 Rise Set
Actual Time 6:55 AM CDT 8:11 PM CDT
Civil Twilight 6:30 AM CDT 8:36 PM CDT
Nautical Twilight 6:00 AM CDT 9:06 PM CDT
Astronomical Twilight 5:29 AM CDT 9:36 PM CDT
Moon 9:22 AM CDT (8/9) 9:44 PM CDT (8/9)
Length of Visible Light 14h 06m
Length of Day
13h 16m
Waxing Crescent, 8% of the Moon is Illuminated
Aug 9
Waxing Crescent
Aug 14
First Quarter
Aug 20
Full
Aug 28
Last Quarter
Sep 5
New

Hourly Weather History & Observations

Time (CDT) Temp. Heat Index Dew Point Humidity Pressure Visibility Wind Dir Wind Speed Gust Speed Precip Events Conditions
12:53 AM 81.0 °F 87.3 °F 75.9 °F 85% 29.91 in 8.0 mi SSE 9.2 mph - N/A   Clear
1:53 AM 81.0 °F 87.3 °F 75.9 °F 85% 29.90 in 8.0 mi SSE 5.8 mph - N/A   Clear
2:53 AM 81.0 °F 87.3 °F 75.9 °F 85% 29.89 in 8.0 mi SSE 5.8 mph - N/A   Clear
3:53 AM 81.0 °F 87.3 °F 75.9 °F 85% 29.90 in 8.0 mi South 3.5 mph - N/A   Clear
4:53 AM 80.1 °F 85.4 °F 75.9 °F 87% 29.90 in 8.0 mi South 4.6 mph - N/A   Clear
5:53 AM 79.0 °F - 75.0 °F 88% 29.89 in 8.0 mi SW 3.5 mph - N/A   Partly Cloudy
6:53 AM 78.1 °F - 75.0 °F 90% 29.91 in 7.0 mi Calm Calm - N/A   Partly Cloudy
7:53 AM 80.1 °F 85.4 °F 75.9 °F 87% 29.92 in 7.0 mi Calm Calm - N/A   Clear
8:53 AM 82.9 °F 90.8 °F 75.9 °F 79% 29.93 in 9.0 mi Variable 4.6 mph - N/A   Partly Cloudy
9:30 AM 86.0 °F 95.1 °F 75.2 °F 70% 29.93 in 10.0 mi Calm Calm - N/A   Mostly Cloudy
9:53 AM 87.1 °F 95.4 °F 73.9 °F 65% 29.94 in 10.0 mi Variable 4.6 mph - N/A   Mostly Cloudy
10:20 AM 87.8 °F 95.6 °F 73.4 °F 62% 29.94 in 10.0 mi Calm Calm - N/A   Scattered Clouds
10:53 AM 89.1 °F 99.1 °F 75.0 °F 63% 29.94 in 10.0 mi ESE 4.6 mph - N/A   Scattered Clouds
11:53 AM 90.0 °F 99.0 °F 73.9 °F 59% 29.94 in 10.0 mi ESE 10.4 mph - N/A   Clear
12:53 PM 91.9 °F 103.2 °F 75.0 °F 58% 29.93 in 10.0 mi SE 9.2 mph - N/A   Clear
1:53 PM 91.0 °F 101.6 °F 75.0 °F 59% 29.92 in 10.0 mi SE 9.2 mph - N/A   Clear
2:53 PM 91.9 °F 103.2 °F 75.0 °F 58% 29.91 in 10.0 mi ESE 12.7 mph - N/A   Clear
3:53 PM 93.0 °F 104.6 °F 75.0 °F 56% 29.89 in 10.0 mi ESE 11.5 mph - N/A   Clear
4:53 PM 91.0 °F 104.2 °F 77.0 °F 63% 29.89 in 10.0 mi ESE 15.0 mph - N/A   Clear
5:53 PM 89.1 °F 100.2 °F 75.9 °F 65% 29.88 in 10.0 mi ESE 13.8 mph - N/A   Clear
6:53 PM 87.1 °F 96.3 °F 75.0 °F 67% 29.88 in 10.0 mi ESE 12.7 mph - N/A   Clear
7:53 PM 84.9 °F 94.1 °F 75.9 °F 74% 29.88 in 10.0 mi SE 13.8 mph 19.6 mph N/A   Clear
8:53 PM 84.0 °F 93.7 °F 77.0 °F 79% 29.91 in 10.0 mi SE 11.5 mph - N/A   Clear
9:53 PM 82.9 °F 92.8 °F 78.1 °F 85% 29.94 in 10.0 mi SE 9.2 mph - N/A   Clear
10:53 PM 82.9 °F 93.8 °F 79.0 °F 88% 29.97 in 10.0 mi SE 10.4 mph - N/A   Clear
11:53 PM 82.9 °F 93.8 °F 79.0 °F 88% 29.96 in 10.0 mi SE 6.9 mph - N/A   Clear